THOR ABLESTAR DEB, 132

Orbit data source: Space-Track

THOR ABLESTAR DEB, 132 is space debris in LEO originally from a launch on Thu, 29 Jun 1961 UTC launched from the Air Force Eastern Test Range (AFETR). Debris objects in space refer to the collection of defunct objects orbiting the Earth. Examples of debris include non-operational satellites, rocket bodies, and fragments generated from explosions, collisions, or faulty payload assembly.

Loading next visibility...
Identifier
132, 1961-015S
Orbit
LEO
Last TLE update
7 hours ago
Origin
Manufacturer
Unknown
Mission
Spacecraft
Bus & Motor
Unknown
Mass
Unknown
Launch date (UTC)
1961-06-29 (64 years ago)
Launch vehicle
Unknown
Launch site
Air Force Eastern Test Range (AFETR)
Object type
Payload
Rocket body
Debris
Shape & HBR
Unknown
Radar Cross Section
Medium (>0.1 m² and <1 m²)

Expand to show TLE details & history

TLE from 7 hours ago
0 THOR ABLESTAR DEB
1 00132U 61015S   25182.57666826 -.00000003  00000-0  55333-4 0  9990
2 00132  66.6598 118.5191 0067815  63.8535 296.9499 13.94700271254778
Epoch: 2025-07-01T13:50Z
TLE epoch observation values (Epoch: 2025-07-01T13:50:24.137Z)
Latitude
-0.00008°
Longitude
-8.95164°
Altitude
892.133 km
Speed
7.418 km/s
True Right ascension
07h 54m 04s
True Declination
0° 00' 00"
Sunlit
Object was in daylight at epoch
Visualization orbit readout
Latitude
-28.14107°
Longitude
-22.91815°
Altitude
925.245 km
Speed
7.387 km/s
Apparent Right ascension
04h 12m 16s
Apparent Declination
-72° 04' 49"
Sunlit
Object is in daylight
Visualization observer readout
Local Sidereal Time
08:14:45
Azimuth
197.97° SSW
Elevation
-29.654°
Doppler factor
1
Orbital elements
Apogee altitude
960.04 km
Perigee altitude
861.183 km
Semi-major axis
7,288.749 km
Eccentricity
0.00678
Inclination
66.6598°
RAAN
118.5191°
Arg. of periapsis
63.8535°
True anomaly
Unknown
Mean anomaly
296.9499°
Eccentric anomaly
Unknown
Mean motion
3.4879 °/min
Orbital period
103.21 mins
BSTAR
0.000055333
Loading maneuver chart data...
Loading SW <> Apogee altitude chart data...

THOR ABLESTAR DEB Visibility forecast

Observer location: undefined°, undefined°

Span
Click to sort rows by Start time (UTC) header in descending order
Start Az.
Max El. time (UTC)
Max El. Az.
Max El.
End time (UTC)
End Az.
9 mins2025-07-01 20:50:38.850Z177.697° S2025-07-01 20:54:38.850Z124.038° SE34.107°2025-07-01 20:59:38.850Z45.489° ENE
8 mins2025-07-01 22:37:38.850Z258.278° W2025-07-01 22:41:38.850Z316.357° NNW26.463°2025-07-01 22:45:38.850Z6.756° NNE
9 mins2025-07-02 05:52:38.850Z348.414° N2025-07-02 05:56:38.850Z45.996° ENE34.341°2025-07-02 06:01:38.850Z121.725° SE
8 mins2025-07-02 07:39:38.850Z297.247° NW2025-07-02 07:42:38.850Z255.326° W26.246°2025-07-02 07:47:38.850Z194.574° SSW
|